Hourly Data Report for October 05, 2014

All times are specified in Local Standard Time (LST). Add 1 hour to adjust for Daylight Saving Time where and when it is observed.

KITCHENER/WATERLOO
ONTARIO

43°27'39.000" N
80°22'43.000" W
321.60 m
6144239
71368
YKF

Download Data

Hourly Data (October 2014)
Hourly Data Report for October 5, 2014
Temp Definition
°C
Dew Point Temp Definition
°C
Rel Hum Definition
%
Wind Dir Definition
10's deg

Wind Spd Definition
km/h
Visibility Definition
km
Stn Press Definition
kPa
Hmdx Definition


Wind Chill Definition


Weather Definition


TIME
00:00 Legend Double Dagger 2.9 1.0 87 24 17 16.1 96.55     LegendNANA
01:00 Legend Double Dagger 2.4 0.6 88 24 13 16.1 96.54     LegendNANA
02:00 Legend Double Dagger 2.6 1.1 90 24 17 16.1 96.51     LegendNANA
03:00 Legend Double Dagger 2.2 1.2 93 23 13 16.1 96.51     LegendNANA
04:00 Legend Double Dagger 1.9 1.2 95 21 8 16.1 96.52     LegendNANA
05:00 Legend Double Dagger 3.5 2.6 94 19 11 16.1 96.57     LegendNANA
06:00 Legend Double Dagger 4.4 3.1 91 23 17 16.1 96.61     LegendNANA
07:00 Legend Double Dagger 4.8 3.2 89 24 17 16.1 96.67     LegendNANA
08:00 Legend Double Dagger 5.8 3.5 85 23 18 16.1 96.72     LegendNANA
09:00 Legend Double Dagger 8.2 4.5 78 25 28 16.1 96.75     LegendNANA
10:00 Legend Double Dagger 9.3 5.0 74 23 24 16.1 96.79     LegendNANA
11:00 Legend Double Dagger 10.2 4.5 68 24 21 16.1 96.80     LegendNANA
12:00 Legend Double Dagger 10.3 2.6 59 24 34 16.1 96.80     LegendNANA
13:00 Legend Double Dagger 10.1 2.5 59 25 22 16.1 96.80     LegendNANA
14:00 Legend Double Dagger 10.5 2.5 57 23 26 16.1 96.80     LegendNANA
15:00 Legend Double Dagger 10.4 2.7 59 24 22 16.1 96.84     LegendNANA
16:00 Legend Double Dagger 9.3 0.5 54 22 26 16.1 96.86     LegendNANA
17:00 Legend Double Dagger 8.9 0.9 57 20 15 16.1 96.88     LegendNANA
18:00 Legend Double Dagger 8.0 2.1 66 19 17 16.1 96.92     Rain
19:00 Legend Double Dagger 7.7 2.2 68 19 15 16.1 96.96     LegendNANA
20:00 Legend Double Dagger 7.1 2.8 74 17 11 16.1 97.00     LegendNANA
21:00 Legend Double Dagger 6.4 2.9 78 15 11 16.1 97.00     LegendNANA
22:00 Legend Double Dagger 6.8 3.3 78 15 9 16.1 96.97     LegendNANA
23:00 Legend Double Dagger 8.0 3.8 75 15 15 16.1 96.93     Rain

Notes on Data Quality.

Legend

  • E = Estimated
  • M = Missing
  • NA = Not Available
  • ‡ = Partner data that is not subject to review by the National Climate Archives
Date modified: